Weather History for Troy, MI

Change the Weather History Date:

Saturday, December 10, 2011

  Actual Average (KDET) Record (KDET)
Temperature  
Mean Temperature 24 °F -  
Max Temperature 32 °F 36 °F 66 °F (1971)
Min Temperature 17 °F 25 °F 4 °F (1977)
Degree Days  
Heating Degree Days 40    
Moisture  
Dew Point 13 °F    
Average Humidity 66    
Maximum Humidity 86    
Minimum Humidity 38    
Precipitation  
Precipitation 0.00 in - - ()
Sea Level Pressure  
Sea Level Pressure 30.42 in    
Wind  
Wind Speed 5 mph (SW)    
Max Wind Speed 13 mph    
Max Gust Speed 20 mph    
Visibility 10 miles    
Events      
Averages and records for this station are not official NWS values.
T = Trace of Precipitation, MM = Missing Value Source: NWS Daily Summary

Daily Weather History Graph

Daily Weather History Graph

Search for Another Location

Airport:

Trip Planner

Search our weather history database for the weather conditions in past years. The results will help you decide how hot, cold, wet, or windy it might be!

Date:

Astronomy

Dec. 10, 2011 Rise Set
Actual Time 7:51 AM EST 4:59 PM EST
Civil Twilight 7:19 AM EST 5:31 PM EST
Nautical Twilight 6:44 AM EST 6:06 PM EST
Astronomical Twilight 6:09 AM EST 6:40 PM EST
Moon 5:12 PM EST (12/10) 7:50 AM EST (12/10)
Length of Visible Light 10h 11m
Length of Day
9h 08m
Full, 100% of the Moon is Illuminated
Dec 10
Full
Dec 17
Last Quarter
Dec 24
New
Jan 1
First Quarter
Jan 9
Full

Hourly Weather History & Observations

Time (EST) Temp. Windchill Dew Point Humidity Pressure Visibility Wind Dir Wind Speed Gust Speed Precip Events Conditions
12:15 AM 21.2 °F 16.4 °F 14.0 °F 74% 30.35 in 10.0 mi WSW 3.5 mph - N/A   Clear
12:34 AM 21.2 °F 16.4 °F 14.0 °F 74% 30.35 in 10.0 mi WSW 3.5 mph - N/A   Clear
12:55 AM 21.2 °F 14.9 °F 14.0 °F 74% 30.35 in 10.0 mi WSW 4.6 mph - N/A   Clear
1:14 AM 21.2 °F 16.4 °F 14.0 °F 74% 30.35 in 10.0 mi WSW 3.5 mph - N/A   Clear
1:34 AM 21.2 °F 16.4 °F 14.0 °F 74% 30.35 in 10.0 mi WSW 3.5 mph - N/A   Clear
1:55 AM 21.2 °F 16.4 °F 14.0 °F 74% 30.36 in 10.0 mi WSW 3.5 mph - N/A   Clear
2:14 AM 19.4 °F 14.3 °F 14.0 °F 80% 30.36 in 10.0 mi WSW 3.5 mph - N/A   Clear
2:35 AM 19.4 °F 12.8 °F 14.0 °F 80% 30.37 in 10.0 mi WSW 4.6 mph - N/A   Clear
2:55 AM 19.4 °F 12.8 °F 14.0 °F 80% 30.37 in 10.0 mi SW 4.6 mph - N/A   Clear
3:14 AM 19.4 °F 14.3 °F 14.0 °F 80% 30.38 in 10.0 mi WSW 3.5 mph - N/A   Clear
3:35 AM 19.4 °F 12.8 °F 14.0 °F 80% 30.38 in 10.0 mi WSW 4.6 mph - N/A   Clear
3:54 AM 19.4 °F 12.8 °F 14.0 °F 80% 30.38 in 10.0 mi SW 4.6 mph - N/A   Clear
4:15 AM 17.6 °F 10.7 °F 14.0 °F 86% 30.38 in 10.0 mi SW 4.6 mph - N/A   Clear
4:35 AM 19.4 °F 14.3 °F 14.0 °F 80% 30.38 in 10.0 mi SW 3.5 mph - N/A   Clear
4:54 AM 17.6 °F 12.3 °F 14.0 °F 86% 30.39 in 10.0 mi SW 3.5 mph - N/A   Clear
5:15 AM 17.6 °F 12.3 °F 14.0 °F 86% 30.39 in 10.0 mi SW 3.5 mph - N/A   Clear
5:34 AM 17.6 °F 10.7 °F 14.0 °F 86% 30.40 in 10.0 mi SW 4.6 mph - N/A   Clear
5:54 AM 17.6 °F 12.3 °F 14.0 °F 86% 30.40 in 10.0 mi SW 3.5 mph - N/A   Clear
6:15 AM 17.6 °F 12.3 °F 14.0 °F 86% 30.41 in 10.0 mi SW 3.5 mph - N/A   Clear
6:35 AM 17.6 °F 12.3 °F 14.0 °F 86% 30.41 in 10.0 mi WSW 3.5 mph - N/A   Clear
6:54 AM 17.6 °F 12.3 °F 14.0 °F 86% 30.42 in 10.0 mi SW 3.5 mph - N/A   Clear
7:15 AM 17.6 °F 12.3 °F 14.0 °F 86% 30.42 in 10.0 mi SW 3.5 mph - N/A   Clear
7:35 AM 17.6 °F 12.3 °F 14.0 °F 86% 30.43 in 10.0 mi SW 3.5 mph - N/A   Clear
7:54 AM 17.6 °F 10.7 °F 14.0 °F 86% 30.43 in 10.0 mi SW 4.6 mph - N/A   Clear
8:15 AM 17.6 °F 12.3 °F 14.0 °F 86% 30.44 in 10.0 mi SW 3.5 mph - N/A   Clear
8:35 AM 17.6 °F 12.3 °F 14.0 °F 86% 30.44 in 10.0 mi WSW 3.5 mph - N/A   Clear
8:54 AM 17.6 °F 12.3 °F 14.0 °F 86% 30.45 in 10.0 mi WSW 3.5 mph - N/A   Clear
9:15 AM 19.4 °F 14.3 °F 14.0 °F 80% 30.46 in 10.0 mi WSW 3.5 mph - N/A   Clear
9:34 AM 19.4 °F 12.8 °F 14.0 °F 80% 30.47 in 10.0 mi WSW 4.6 mph - N/A   Clear
9:54 AM 21.2 °F 13.6 °F 14.0 °F 74% 30.47 in 10.0 mi WSW 5.8 mph - N/A   Clear
10:15 AM 23.0 °F 15.8 °F 15.8 °F 74% 30.47 in 10.0 mi WSW 5.8 mph - N/A   Clear
10:34 AM 24.8 °F 16.9 °F 14.0 °F 64% 30.48 in 10.0 mi WSW 6.9 mph - N/A   Clear
10:55 AM 26.6 °F 22.6 °F 14.0 °F 59% 30.48 in 10.0 mi West 3.5 mph - N/A   Clear
11:15 AM 28.4 °F 22.2 °F 14.0 °F 55% 30.48 in 10.0 mi WSW 5.8 mph - N/A   Scattered Clouds
11:34 AM 28.4 °F 19.1 °F 14.0 °F 55% 30.48 in 10.0 mi WSW 10.4 mph - N/A   Scattered Clouds
12:14 PM 28.4 °F 19.1 °F 12.2 °F 51% 30.46 in 10.0 mi WSW 10.4 mph 17.3 mph N/A   Clear
12:35 PM 28.4 °F 20.4 °F 12.2 °F 51% 30.45 in 10.0 mi WSW 8.1 mph 17.3 mph N/A   Clear
12:55 PM 30.2 °F 21.9 °F 12.2 °F 47% 30.45 in 10.0 mi WSW 9.2 mph - N/A   Clear
1:14 PM 30.2 °F 21.9 °F 12.2 °F 47% 30.44 in 10.0 mi SW 9.2 mph - N/A   Clear
1:35 PM 30.2 °F 21.3 °F 10.4 °F 44% 30.44 in 10.0 mi WSW 10.4 mph - N/A   Clear
1:54 PM 30.2 °F 20.8 °F 10.4 °F 44% 30.44 in 10.0 mi West 11.5 mph 19.6 mph N/A   Clear
2:14 PM 30.2 °F 21.3 °F 10.4 °F 44% 30.43 in 10.0 mi WSW 10.4 mph - N/A   Clear
2:35 PM 30.2 °F 20.8 °F 10.4 °F 44% 30.43 in 10.0 mi WSW 11.5 mph - N/A   Clear
2:54 PM 32.0 °F 24.2 °F 8.6 °F 38% 30.42 in 10.0 mi West 9.2 mph - N/A   Clear
3:15 PM 30.2 °F 20.8 °F 10.4 °F 44% 30.43 in 10.0 mi SW 11.5 mph - N/A   Clear
3:35 PM 30.2 °F 23.4 °F 10.4 °F 44% 30.43 in 10.0 mi SSW 6.9 mph - N/A   Clear
3:54 PM 30.2 °F 24.3 °F 10.4 °F 44% 30.43 in 10.0 mi SW 5.8 mph - N/A   Clear
4:15 PM 30.2 °F 23.4 °F 10.4 °F 44% 30.43 in 10.0 mi SW 6.9 mph 16.1 mph N/A   Clear
4:35 PM 30.2 °F 20.2 °F 10.4 °F 44% 30.44 in 10.0 mi WSW 12.7 mph - N/A   Clear
4:54 PM 28.4 °F 19.7 °F 10.4 °F 47% 30.44 in 10.0 mi SW 9.2 mph - N/A   Clear
5:15 PM 28.4 °F 22.2 °F 10.4 °F 47% 30.45 in 10.0 mi SW 5.8 mph - N/A   Clear
5:34 PM 28.4 °F 21.2 °F 12.2 °F 51% 30.45 in 10.0 mi SW 6.9 mph - N/A   Clear
5:54 PM 28.4 °F 23.3 °F 12.2 °F 51% 30.45 in 10.0 mi SW 4.6 mph - N/A   Clear
6:15 PM 26.6 °F 19.1 °F 10.4 °F 51% 30.46 in 10.0 mi SW 6.9 mph - N/A   Clear
6:34 PM 26.6 °F 18.2 °F 10.4 °F 51% 30.45 in 10.0 mi SW 8.1 mph - N/A   Clear
6:55 PM 26.6 °F 19.1 °F 10.4 °F 51% 30.45 in 10.0 mi SW 6.9 mph - N/A   Clear
7:15 PM 26.6 °F 19.1 °F 10.4 °F 51% 30.46 in 10.0 mi SW 6.9 mph - N/A   Clear
7:34 PM 26.6 °F 21.2 °F 10.4 °F 51% 30.46 in 10.0 mi SW 4.6 mph - N/A   Clear
7:55 PM 26.6 °F 19.1 °F 10.4 °F 51% 30.46 in 10.0 mi SW 6.9 mph - N/A   Clear
8:15 PM 26.6 °F 21.2 °F 10.4 °F 51% 30.47 in 10.0 mi SW 4.6 mph - N/A   Clear
8:34 PM 24.8 °F 17.9 °F 10.4 °F 54% 30.47 in 10.0 mi SW 5.8 mph - N/A   Clear
8:55 PM 24.8 °F 16.9 °F 8.6 °F 50% 30.47 in 10.0 mi SW 6.9 mph - N/A   Clear
9:15 PM 24.8 °F 16.9 °F 8.6 °F 50% 30.47 in 10.0 mi SW 6.9 mph - N/A   Clear
9:34 PM 23.0 °F 14.7 °F 8.6 °F 54% 30.47 in 10.0 mi SW 6.9 mph - N/A   Clear
9:55 PM 23.0 °F 14.7 °F 6.8 °F 50% 30.47 in 10.0 mi SW 6.9 mph - N/A   Clear
10:14 PM 23.0 °F 15.8 °F 5.0 °F 46% 30.47 in 10.0 mi SW 5.8 mph - N/A   Clear
10:35 PM 23.0 °F 13.9 °F 5.0 °F 46% 30.48 in 10.0 mi SW 8.1 mph - N/A   Clear
10:55 PM 23.0 °F 13.9 °F 5.0 °F 46% 30.48 in 10.0 mi SW 8.1 mph - N/A   Clear
11:14 PM 23.0 °F 13.9 °F 5.0 °F 46% 30.48 in 10.0 mi SW 8.1 mph - N/A   Scattered Clouds
11:35 PM 23.0 °F 12.4 °F 5.0 °F 46% 30.48 in 10.0 mi SW 10.4 mph - N/A   Overcast
11:55 PM 23.0 °F 13.9 °F 5.0 °F 46% 30.48 in 10.0 mi SW 8.1 mph - N/A   Overcast